Weather History for Tin City, AK

Change the Weather History Date:

Sunday, March 10, 2013

  Actual Average Record
Temperature  
Mean Temperature 1 °F -  
Max Temperature 6 °F 6 °F 28 °F (2009)
Min Temperature -4 °F -1 °F -22 °F (2006)
Degree Days  
Heating Degree Days 64    
Moisture  
Dew Point -4 °F    
Average Humidity 81    
Maximum Humidity 92    
Minimum Humidity 75    
Precipitation  
Precipitation 0.00 in - - ()
Sea Level Pressure  
Sea Level Pressure 30.33 in    
Wind  
Wind Speed 27 mph (NNE)    
Max Wind Speed 39 mph    
Max Gust Speed 78 mph    
Visibility 8 miles    
Events Snow    
Averages and records for this station are not official NWS values.
T = Trace of Precipitation, MM = Missing Value Source: NWS Daily Summary

Daily Weather History Graph

Daily Weather History Graph

Search for Another Location

Airport:

Trip Planner

Search our weather history database for the weather conditions in past years. The results will help you decide how hot, cold, wet, or windy it might be!

Date:

Astronomy

Mar. 10, 2013 Rise Set
Actual Time 9:47 AM AKDT 8:57 PM AKDT
Civil Twilight 8:57 AM AKDT 9:47 PM AKDT
Nautical Twilight 7:58 AM AKDT 10:47 PM AKDT
Astronomical Twilight 6:54 AM AKDT 11:52 PM AKDT
Moon 9:04 AM AKDT (3/10) 8:20 PM AKDT (3/10)
Length of Visible Light 12h 50m
Length of Day
11h 09m
Waning Crescent, 1% of the Moon is Illuminated
Mar 10
Waning Crescent
Mar 11
New
Mar 19
First Quarter
Mar 27
Full
Apr 2
Last Quarter

Hourly Weather History & Observations

Time (AKDT) Temp. Windchill Dew Point Humidity Pressure Visibility Wind Dir Wind Speed Gust Speed Precip Events Conditions
12:31 AM 6.8 °F - 5.0 °F 92% 29.94 in 3.0 mi North - - N/A Snow Light Snow
12:55 AM 6.1 °F - 3.4 °F 89% 29.96 in 4.0 mi North - - N/A Snow Light Snow
1:55 AM 5.0 °F -19.0 °F -0.4 °F 78% 29.97 in 3.0 mi North 29.9 mph - N/A Snow Light Snow
3:11 AM 5.0 °F -18.3 °F -0.4 °F 78% 30.01 in 4.0 mi North 27.6 mph 40.3 mph N/A Snow Light Snow
3:52 AM 3.2 °F -24.1 °F -0.4 °F 85% 30.05 in 3.0 mi NNE 39.1 mph 48.3 mph N/A Snow Light Snow
4:32 AM 3.2 °F -22.9 °F -2.2 °F 78% 30.08 in 3.0 mi NNE 34.5 mph 46.0 mph N/A Snow Light Snow
4:52 AM 1.4 °F -25.0 °F -2.2 °F 85% 30.08 in 5.0 mi NNE 33.4 mph 41.4 mph N/A Snow Light Snow
4:55 AM 1.8 °F -24.2 °F -2.7 °F 81% 30.08 in 5.0 mi NNE 32.2 mph 40.3 mph N/A Snow Light Snow
5:32 AM 1.4 °F -25.0 °F -2.2 °F 85% 30.12 in 8.0 mi NNE 33.4 mph 36.8 mph N/A   Mostly Cloudy
5:52 AM 1.4 °F -25.0 °F -2.2 °F 85% 30.15 in 9.0 mi NNE 33.4 mph 43.7 mph N/A   Mostly Cloudy
5:55 AM 1.6 °F -24.7 °F -2.9 °F 81% 30.15 in 10.0 mi NNE 33.4 mph 44.9 mph N/A   Mostly Cloudy
6:12 AM 1.4 °F -25.0 °F -2.2 °F 85% 30.16 in 10.0 mi NNE 33.4 mph 42.6 mph N/A Snow Light Snow Showers
6:32 AM 1.4 °F -25.0 °F -2.2 °F 85% 30.18 in 10.0 mi NNE 33.4 mph 78.3 mph N/A   Overcast
6:55 AM 1.4 °F -25.0 °F -3.1 °F 81% 30.20 in 10.0 mi NNE 33.4 mph 78.3 mph N/A   Mostly Cloudy
7:55 AM -0.4 °F -26.0 °F -5.1 °F 81% 30.23 in 10.0 mi NNE 28.8 mph 39.1 mph N/A   Scattered Clouds
8:55 AM -1.5 °F -26.2 °F -6.3 °F 80% 30.27 in 10.0 mi NNE 25.3 mph 42.6 mph N/A   Clear
9:55 AM -1.3 °F -26.8 °F -6.2 °F 80% 30.30 in 10.0 mi NNE 27.6 mph 41.4 mph N/A   Clear
10:55 AM -1.1 °F -26.6 °F -6.3 °F 79% 30.35 in 10.0 mi North 27.6 mph 34.5 mph N/A   Clear
11:55 AM -1.1 °F -26.6 °F -6.3 °F 79% 30.36 in 10.0 mi NNE 27.6 mph 34.5 mph N/A   Clear
12:55 PM -0.6 °F -25.4 °F -6.2 °F 77% 30.41 in 10.0 mi North 26.5 mph - N/A   Clear
1:55 PM -0.8 °F -25.2 °F -6.5 °F 77% 30.45 in 10.0 mi NNE 25.3 mph - N/A   Clear
2:55 PM -0.6 °F -22.0 °F -6.2 °F 77% 30.50 in 10.0 mi NNE 18.4 mph - N/A   Clear
3:55 PM -0.4 °F -21.7 °F -5.6 °F 79% 30.52 in 10.0 mi North 18.4 mph - N/A   Clear
4:32 PM 1.4 °F -18.2 °F -4.0 °F 78% 30.54 in 10.0 mi NNE 16.1 mph - N/A   Mostly Cloudy
4:55 PM -0.6 °F -18.6 °F -4.9 °F 82% 30.55 in 10.0 mi NE 12.7 mph - N/A   Mostly Cloudy
5:55 PM -1.3 °F -18.7 °F -5.1 °F 84% 30.58 in 10.0 mi ENE 11.5 mph - N/A   Mostly Cloudy
6:55 PM -0.4 °F -17.6 °F -6.2 °F 77% 30.60 in 10.0 mi NNE 11.5 mph - N/A   Mostly Cloudy
7:12 PM -0.4 °F -16.7 °F -5.8 °F 78% 30.61 in 10.0 mi NNE 10.4 mph - N/A   Partly Cloudy
7:55 PM -2.2 °F -19.9 °F -7.6 °F 78% 30.57 in 10.0 mi North 11.5 mph - N/A   Clear
8:55 PM -2.0 °F -21.2 °F -8.3 °F 75% 30.63 in 10.0 mi North 13.8 mph - N/A   Clear
9:55 PM -2.6 °F -20.3 °F -8.5 °F 76% 30.65 in 10.0 mi NNE 11.5 mph - N/A   Clear
10:55 PM -4.0 °F -23.7 °F -8.7 °F 80% 30.66 in 10.0 mi NNE 13.8 mph - N/A   Clear
11:55 PM -3.3 °F -21.2 °F -9.2 °F 76% 30.68 in 10.0 mi NNE 11.5 mph - N/A   Clear
12:55 AM -4.0 °F -22.1 °F -9.0 °F 79% 30.69 in 10.0 mi NNE 11.5 mph - N/A   Clear